Data supplied by UK-AIR on 30/3/2023
All Data GMT hour ending 
Status: R =Ratified P=Provisional,P*=As supplied
,,Lough Navar,,,,,,,,,,,,,,,,,,,,,,,
Date,time,"PM<sub>10</sub> particulate matter (Hourly measured)",status,unit,"Ozone",status,unit,"PM<sub>2.5</sub> particulate matter (Hourly measured)",status,unit
 
01-01-2022,01:00,5.325,R,ugm-3 (FIDAS),52.55343,R,ugm-3,3.184,R,ugm-3 (Ref.eq)
01-01-2022,02:00,13.800,R,ugm-3 (FIDAS),52.55343,R,ugm-3,8.302,R,ugm-3 (Ref.eq)
01-01-2022,03:00,22.875,R,ugm-3 (FIDAS),54.48261,R,ugm-3,13.632,R,ugm-3 (Ref.eq)
01-01-2022,04:00,25.525,R,ugm-3 (FIDAS),55.18111,R,ugm-3,14.009,R,ugm-3 (Ref.eq)
01-01-2022,05:00,24.300,R,ugm-3 (FIDAS),55.33078,R,ugm-3,13.278,R,ugm-3 (Ref.eq)
01-01-2022,06:00,20.325,R,ugm-3 (FIDAS),60.66928,R,ugm-3,12.311,R,ugm-3 (Ref.eq)
01-01-2022,07:00,15.450,R,ugm-3 (FIDAS),69.99918,R,ugm-3,9.741,R,ugm-3 (Ref.eq)
01-01-2022,08:00,12.625,R,ugm-3 (FIDAS),82.32263,R,ugm-3,7.594,R,ugm-3 (Ref.eq)
01-01-2022,09:00,15.850,R,ugm-3 (FIDAS),82.72177,R,ugm-3,9.316,R,ugm-3 (Ref.eq)
01-01-2022,10:00,15.750,R,ugm-3 (FIDAS),78.78026,R,ugm-3,8.892,R,ugm-3 (Ref.eq)
01-01-2022,11:00,13.325,R,ugm-3 (FIDAS),77.08391,R,ugm-3,7.783,R,ugm-3 (Ref.eq)
01-01-2022,12:00,14.350,R,ugm-3 (FIDAS),76.38542,R,ugm-3,8.302,R,ugm-3 (Ref.eq)
01-01-2022,13:00,12.500,R,ugm-3 (FIDAS),71.49595,R,ugm-3,7.500,R,ugm-3 (Ref.eq)
01-01-2022,14:00,4.025,R,ugm-3 (FIDAS),76.98413,R,ugm-3,2.524,R,ugm-3 (Ref.eq)
01-01-2022,15:00,2.950,R,ugm-3 (FIDAS),75.38757,R,ugm-3,1.840,R,ugm-3 (Ref.eq)
01-01-2022,16:00,8.725,R,ugm-3 (FIDAS),73.49165,R,ugm-3,4.811,R,ugm-3 (Ref.eq)
01-01-2022,17:00,7.775,R,ugm-3 (FIDAS),69.10111,R,ugm-3,4.882,R,ugm-3 (Ref.eq)
01-01-2022,18:00,8.525,R,ugm-3 (FIDAS),59.62154,R,ugm-3,5.472,R,ugm-3 (Ref.eq)
01-01-2022,19:00,10.125,R,ugm-3 (FIDAS),53.33508,R,ugm-3,6.132,R,ugm-3 (Ref.eq)
01-01-2022,20:00,10.925,R,ugm-3 (FIDAS),44.55400,R,ugm-3,6.439,R,ugm-3 (Ref.eq)
01-01-2022,21:00,15.025,R,ugm-3 (FIDAS),58.37423,R,ugm-3,8.019,R,ugm-3 (Ref.eq)
01-01-2022,22:00,17.250,R,ugm-3 (FIDAS),58.77337,R,ugm-3,9.269,R,ugm-3 (Ref.eq)
01-01-2022,23:00,18.250,R,ugm-3 (FIDAS),59.32218,R,ugm-3,8.962,R,ugm-3 (Ref.eq)
01-01-2022,24:00,16.900,R,ugm-3 (FIDAS),62.31573,R,ugm-3,8.137,R,ugm-3 (Ref.eq)
02-01-2022,01:00,15.425,R,ugm-3 (FIDAS),63.66283,R,ugm-3,7.476,R,ugm-3 (Ref.eq)
02-01-2022,02:00,13.875,R,ugm-3 (FIDAS),61.20147,R,ugm-3,6.958,R,ugm-3 (Ref.eq)
02-01-2022,03:00,13.275,R,ugm-3 (FIDAS),60.56950,R,ugm-3,6.604,R,ugm-3 (Ref.eq)
02-01-2022,04:00,11.325,R,ugm-3 (FIDAS),63.66283,R,ugm-3,5.873,R,ugm-3 (Ref.eq)
02-01-2022,05:00,10.525,R,ugm-3 (FIDAS),62.51530,R,ugm-3,5.519,R,ugm-3 (Ref.eq)
02-01-2022,06:00,10.250,R,ugm-3 (FIDAS),61.16821,R,ugm-3,5.519,R,ugm-3 (Ref.eq)
02-01-2022,07:00,12.475,R,ugm-3 (FIDAS),62.26584,R,ugm-3,6.014,R,ugm-3 (Ref.eq)
02-01-2022,08:00,9.800,R,ugm-3 (FIDAS),66.40692,R,ugm-3,5.472,R,ugm-3 (Ref.eq)
02-01-2022,09:00,10.925,R,ugm-3 (FIDAS),66.80606,R,ugm-3,5.778,R,ugm-3 (Ref.eq)
02-01-2022,10:00,11.900,R,ugm-3 (FIDAS),64.71057,R,ugm-3,6.250,R,ugm-3 (Ref.eq)
02-01-2022,11:00,11.850,R,ugm-3 (FIDAS),69.40047,R,ugm-3,6.392,R,ugm-3 (Ref.eq)
02-01-2022,12:00,9.375,R,ugm-3 (FIDAS),72.19445,R,ugm-3,5.660,R,ugm-3 (Ref.eq)
02-01-2022,13:00,9.250,R,ugm-3 (FIDAS),71.44606,R,ugm-3,5.613,R,ugm-3 (Ref.eq)
02-01-2022,14:00,10.400,R,ugm-3 (FIDAS),68.95144,R,ugm-3,5.967,R,ugm-3 (Ref.eq)
02-01-2022,15:00,8.800,R,ugm-3 (FIDAS),67.85380,R,ugm-3,5.094,R,ugm-3 (Ref.eq)
02-01-2022,16:00,9.275,R,ugm-3 (FIDAS),66.35703,R,ugm-3,5.047,R,ugm-3 (Ref.eq)
02-01-2022,17:00,10.925,R,ugm-3 (FIDAS),65.05982,R,ugm-3,6.179,R,ugm-3 (Ref.eq)
02-01-2022,18:00,12.475,R,ugm-3 (FIDAS),62.71487,R,ugm-3,7.736,R,ugm-3 (Ref.eq)
02-01-2022,19:00,12.975,R,ugm-3 (FIDAS),65.35918,R,ugm-3,8.042,R,ugm-3 (Ref.eq)
02-01-2022,20:00,9.400,R,ugm-3 (FIDAS),67.80391,R,ugm-3,5.519,R,ugm-3 (Ref.eq)
02-01-2022,21:00,10.350,R,ugm-3 (FIDAS),66.10756,R,ugm-3,6.344,R,ugm-3 (Ref.eq)
02-01-2022,22:00,14.000,R,ugm-3 (FIDAS),65.65853,R,ugm-3,8.090,R,ugm-3 (Ref.eq)
02-01-2022,23:00,10.450,R,ugm-3 (FIDAS),67.65423,R,ugm-3,6.509,R,ugm-3 (Ref.eq)
02-01-2022,24:00,9.175,R,ugm-3 (FIDAS),67.05552,R,ugm-3,5.236,R,ugm-3 (Ref.eq)
03-01-2022,01:00,9.775,R,ugm-3 (FIDAS),65.72505,R,ugm-3,5.731,R,ugm-3 (Ref.eq)
03-01-2022,02:00,10.525,R,ugm-3 (FIDAS),63.66283,R,ugm-3,6.557,R,ugm-3 (Ref.eq)
03-01-2022,03:00,9.400,R,ugm-3 (FIDAS),67.25509,R,ugm-3,6.014,R,ugm-3 (Ref.eq)
03-01-2022,04:00,7.475,R,ugm-3 (FIDAS),64.86025,R,ugm-3,4.528,R,ugm-3 (Ref.eq)
03-01-2022,05:00,10.250,R,ugm-3 (FIDAS),59.67143,R,ugm-3,6.274,R,ugm-3 (Ref.eq)
03-01-2022,06:00,5.825,R,ugm-3 (FIDAS),66.95574,R,ugm-3,3.632,R,ugm-3 (Ref.eq)
03-01-2022,07:00,7.175,R,ugm-3 (FIDAS),61.46756,R,ugm-3,4.292,R,ugm-3 (Ref.eq)
03-01-2022,08:00,9.375,R,ugm-3 (FIDAS),63.76262,R,ugm-3,5.495,R,ugm-3 (Ref.eq)
03-01-2022,09:00,10.975,R,ugm-3 (FIDAS),60.41982,R,ugm-3,6.250,R,ugm-3 (Ref.eq)
03-01-2022,10:00,10.250,R,ugm-3 (FIDAS),58.82326,R,ugm-3,5.943,R,ugm-3 (Ref.eq)
03-01-2022,11:00,11.300,R,ugm-3 (FIDAS),53.78412,R,ugm-3,6.297,R,ugm-3 (Ref.eq)
03-01-2022,12:00,11.725,R,ugm-3 (FIDAS),58.27444,R,ugm-3,6.769,R,ugm-3 (Ref.eq)
03-01-2022,13:00,6.375,R,ugm-3 (FIDAS),58.47401,R,ugm-3,4.151,R,ugm-3 (Ref.eq)
03-01-2022,14:00,0.875,R,ugm-3 (FIDAS),67.95359,R,ugm-3,0.472,R,ugm-3 (Ref.eq)
03-01-2022,15:00,2.275,R,ugm-3 (FIDAS),67.40477,R,ugm-3,1.580,R,ugm-3 (Ref.eq)
03-01-2022,16:00,3.525,R,ugm-3 (FIDAS),66.85595,R,ugm-3,2.359,R,ugm-3 (Ref.eq)
03-01-2022,17:00,5.900,R,ugm-3 (FIDAS),70.14886,R,ugm-3,3.538,R,ugm-3 (Ref.eq)
03-01-2022,18:00,8.400,R,ugm-3 (FIDAS),69.50025,R,ugm-3,4.363,R,ugm-3 (Ref.eq)
03-01-2022,19:00,11.950,R,ugm-3 (FIDAS),70.49810,R,ugm-3,6.439,R,ugm-3 (Ref.eq)
03-01-2022,20:00,12.575,R,ugm-3 (FIDAS),70.74757,R,ugm-3,5.495,R,ugm-3 (Ref.eq)
03-01-2022,21:00,11.300,R,ugm-3 (FIDAS),64.26154,R,ugm-3,5.094,R,ugm-3 (Ref.eq)
03-01-2022,22:00,10.850,R,ugm-3 (FIDAS),56.92734,R,ugm-3,4.882,R,ugm-3 (Ref.eq)
03-01-2022,23:00,8.475,R,ugm-3 (FIDAS),39.06583,R,ugm-3,5.142,R,ugm-3 (Ref.eq)
03-01-2022,24:00,5.075,R,ugm-3 (FIDAS),49.24390,R,ugm-3,2.406,R,ugm-3 (Ref.eq)
04-01-2022,01:00,5.400,R,ugm-3 (FIDAS),32.06425,R,ugm-3,2.618,R,ugm-3 (Ref.eq)
04-01-2022,02:00,4.650,R,ugm-3 (FIDAS),46.43329,R,ugm-3,2.571,R,ugm-3 (Ref.eq)
04-01-2022,03:00,5.600,R,ugm-3 (FIDAS),52.78627,R,ugm-3,3.042,R,ugm-3 (Ref.eq)
04-01-2022,04:00,5.250,R,ugm-3 (FIDAS),38.61680,R,ugm-3,2.925,R,ugm-3 (Ref.eq)
04-01-2022,05:00,5.975,R,ugm-3 (FIDAS),34.52561,R,ugm-3,3.467,R,ugm-3 (Ref.eq)
04-01-2022,06:00,8.050,R,ugm-3 (FIDAS),42.85766,R,ugm-3,4.528,R,ugm-3 (Ref.eq)
04-01-2022,07:00,11.175,R,ugm-3 (FIDAS),59.22240,R,ugm-3,5.354,R,ugm-3 (Ref.eq)
04-01-2022,08:00,7.825,R,ugm-3 (FIDAS),54.58240,R,ugm-3,4.623,R,ugm-3 (Ref.eq)
04-01-2022,09:00,8.125,R,ugm-3 (FIDAS),52.58670,R,ugm-3,4.552,R,ugm-3 (Ref.eq)
04-01-2022,10:00,8.900,R,ugm-3 (FIDAS),50.79057,R,ugm-3,4.976,R,ugm-3 (Ref.eq)
04-01-2022,11:00,10.975,R,ugm-3 (FIDAS),51.18971,R,ugm-3,5.401,R,ugm-3 (Ref.eq)
04-01-2022,12:00,8.425,R,ugm-3 (FIDAS),61.46756,R,ugm-3,4.481,R,ugm-3 (Ref.eq)
04-01-2022,13:00,10.775,R,ugm-3 (FIDAS),62.76477,R,ugm-3,5.495,R,ugm-3 (Ref.eq)
04-01-2022,14:00,10.325,R,ugm-3 (FIDAS),60.51960,R,ugm-3,4.976,R,ugm-3 (Ref.eq)
04-01-2022,15:00,12.600,R,ugm-3 (FIDAS),59.87100,R,ugm-3,6.179,R,ugm-3 (Ref.eq)
04-01-2022,16:00,13.100,R,ugm-3 (FIDAS),55.28089,R,ugm-3,6.321,R,ugm-3 (Ref.eq)
04-01-2022,17:00,10.900,R,ugm-3 (FIDAS),41.95959,R,ugm-3,5.637,R,ugm-3 (Ref.eq)
04-01-2022,18:00,12.150,R,ugm-3 (FIDAS),48.84476,R,ugm-3,5.590,R,ugm-3 (Ref.eq)
04-01-2022,19:00,10.800,R,ugm-3 (FIDAS),41.11142,R,ugm-3,5.142,R,ugm-3 (Ref.eq)
04-01-2022,20:00,10.800,R,ugm-3 (FIDAS),45.65164,R,ugm-3,5.259,R,ugm-3 (Ref.eq)
04-01-2022,21:00,10.900,R,ugm-3 (FIDAS),50.24175,R,ugm-3,5.708,R,ugm-3 (Ref.eq)
04-01-2022,22:00,7.200,R,ugm-3 (FIDAS),36.17206,R,ugm-3,3.892,R,ugm-3 (Ref.eq)
04-01-2022,23:00,10.725,R,ugm-3 (FIDAS),48.79487,R,ugm-3,5.495,R,ugm-3 (Ref.eq)
04-01-2022,24:00,6.850,R,ugm-3 (FIDAS),65.35918,R,ugm-3,3.609,R,ugm-3 (Ref.eq)
05-01-2022,01:00,6.475,R,ugm-3 (FIDAS),48.96117,R,ugm-3,3.561,R,ugm-3 (Ref.eq)
05-01-2022,02:00,5.725,R,ugm-3 (FIDAS),58.60706,R,ugm-3,3.443,R,ugm-3 (Ref.eq)
05-01-2022,03:00,3.525,R,ugm-3 (FIDAS),56.12906,R,ugm-3,2.170,R,ugm-3 (Ref.eq)
05-01-2022,04:00,2.625,R,ugm-3 (FIDAS),30.33464,R,ugm-3,1.557,R,ugm-3 (Ref.eq)
05-01-2022,05:00,3.525,R,ugm-3 (FIDAS),29.98539,R,ugm-3,2.005,R,ugm-3 (Ref.eq)
05-01-2022,06:00,4.300,R,ugm-3 (FIDAS),42.10927,R,ugm-3,2.406,R,ugm-3 (Ref.eq)
05-01-2022,07:00,2.925,R,ugm-3 (FIDAS),35.72303,R,ugm-3,1.840,R,ugm-3 (Ref.eq)
05-01-2022,08:00,4.675,R,ugm-3 (FIDAS),42.00949,R,ugm-3,2.453,R,ugm-3 (Ref.eq)
05-01-2022,09:00,2.875,R,ugm-3 (FIDAS),19.85722,R,ugm-3,1.651,R,ugm-3 (Ref.eq)
05-01-2022,10:00,2.775,R,ugm-3 (FIDAS),20.45593,R,ugm-3,1.604,R,ugm-3 (Ref.eq)
05-01-2022,11:00,3.250,R,ugm-3 (FIDAS),16.91356,R,ugm-3,1.533,R,ugm-3 (Ref.eq)
05-01-2022,12:00,4.300,R,ugm-3 (FIDAS),27.69034,R,ugm-3,2.193,R,ugm-3 (Ref.eq)
05-01-2022,13:00,5.300,R,ugm-3 (FIDAS),35.82282,R,ugm-3,2.524,R,ugm-3 (Ref.eq)
05-01-2022,14:00,5.325,R,ugm-3 (FIDAS),44.65379,R,ugm-3,2.736,R,ugm-3 (Ref.eq)
05-01-2022,15:00,5.650,R,ugm-3 (FIDAS),41.61035,R,ugm-3,2.642,R,ugm-3 (Ref.eq)
05-01-2022,16:00,5.425,R,ugm-3 (FIDAS),35.72303,R,ugm-3,2.618,R,ugm-3 (Ref.eq)
05-01-2022,17:00,4.025,R,ugm-3 (FIDAS),16.66410,R,ugm-3,2.028,R,ugm-3 (Ref.eq)
05-01-2022,18:00,6.250,R,ugm-3 (FIDAS),13.57076,R,ugm-3,4.788,R,ugm-3 (Ref.eq)
05-01-2022,19:00,14.425,R,ugm-3 (FIDAS),11.27571,R,ugm-3,12.335,R,ugm-3 (Ref.eq)
05-01-2022,20:00,17.175,R,ugm-3 (FIDAS),10.62710,R,ugm-3,14.859,R,ugm-3 (Ref.eq)
05-01-2022,21:00,10.350,R,ugm-3 (FIDAS),13.47098,R,ugm-3,8.396,R,ugm-3 (Ref.eq)
05-01-2022,22:00,12.475,R,ugm-3 (FIDAS),28.33894,R,ugm-3,10.024,R,ugm-3 (Ref.eq)
05-01-2022,23:00,6.575,R,ugm-3 (FIDAS),43.05723,R,ugm-3,4.292,R,ugm-3 (Ref.eq)
05-01-2022,24:00,7.225,R,ugm-3 (FIDAS),41.26110,R,ugm-3,4.552,R,ugm-3 (Ref.eq)
06-01-2022,01:00,7.175,R,ugm-3 (FIDAS),60.46971,R,ugm-3,4.245,R,ugm-3 (Ref.eq)
06-01-2022,02:00,5.975,R,ugm-3 (FIDAS),66.12419,R,ugm-3,3.443,R,ugm-3 (Ref.eq)
06-01-2022,03:00,5.825,R,ugm-3 (FIDAS),65.85810,R,ugm-3,3.208,R,ugm-3 (Ref.eq)
06-01-2022,04:00,5.800,R,ugm-3 (FIDAS),66.80606,R,ugm-3,3.042,R,ugm-3 (Ref.eq)
06-01-2022,05:00,5.250,R,ugm-3 (FIDAS),68.10326,R,ugm-3,2.925,R,ugm-3 (Ref.eq)
06-01-2022,06:00,3.875,R,ugm-3 (FIDAS),66.20735,R,ugm-3,2.524,R,ugm-3 (Ref.eq)
06-01-2022,07:00,2.625,R,ugm-3 (FIDAS),67.30498,R,ugm-3,1.627,R,ugm-3 (Ref.eq)
06-01-2022,08:00,1.350,R,ugm-3 (FIDAS),66.40692,R,ugm-3,0.896,R,ugm-3 (Ref.eq)
06-01-2022,09:00,0.450,R,ugm-3 (FIDAS),66.80606,R,ugm-3,0.307,R,ugm-3 (Ref.eq)
06-01-2022,10:00,1.650,R,ugm-3 (FIDAS),63.16391,R,ugm-3,1.014,R,ugm-3 (Ref.eq)
06-01-2022,11:00,5.375,R,ugm-3 (FIDAS),67.30498,R,ugm-3,3.396,R,ugm-3 (Ref.eq)
06-01-2022,12:00,6.425,R,ugm-3 (FIDAS),71.94499,R,ugm-3,3.656,R,ugm-3 (Ref.eq)
06-01-2022,13:00,5.550,R,ugm-3 (FIDAS),71.04692,R,ugm-3,3.491,R,ugm-3 (Ref.eq)
06-01-2022,14:00,3.350,R,ugm-3 (FIDAS),69.84950,R,ugm-3,1.981,R,ugm-3 (Ref.eq)
06-01-2022,15:00,1.725,R,ugm-3 (FIDAS),70.89724,R,ugm-3,1.038,R,ugm-3 (Ref.eq)
06-01-2022,16:00,2.675,R,ugm-3 (FIDAS),68.80176,R,ugm-3,1.321,R,ugm-3 (Ref.eq)
06-01-2022,17:00,2.600,R,ugm-3 (FIDAS),68.30283,R,ugm-3,1.840,R,ugm-3 (Ref.eq)
06-01-2022,18:00,2.600,R,ugm-3 (FIDAS),64.61079,R,ugm-3,1.462,R,ugm-3 (Ref.eq)
06-01-2022,19:00,4.850,R,ugm-3 (FIDAS),63.36348,R,ugm-3,3.325,R,ugm-3 (Ref.eq)
06-01-2022,20:00,3.500,R,ugm-3 (FIDAS),65.35918,R,ugm-3,2.642,R,ugm-3 (Ref.eq)
06-01-2022,21:00,3.050,R,ugm-3 (FIDAS),65.40907,R,ugm-3,1.958,R,ugm-3 (Ref.eq)
06-01-2022,22:00,0.775,R,ugm-3 (FIDAS),65.05982,R,ugm-3,0.519,R,ugm-3 (Ref.eq)
06-01-2022,23:00,1.450,R,ugm-3 (FIDAS),60.66928,R,ugm-3,1.132,R,ugm-3 (Ref.eq)
06-01-2022,24:00,1.875,R,ugm-3 (FIDAS),64.71057,R,ugm-3,1.368,R,ugm-3 (Ref.eq)
07-01-2022,01:00,1.875,R,ugm-3 (FIDAS),64.86025,R,ugm-3,1.274,R,ugm-3 (Ref.eq)
07-01-2022,02:00,1.975,R,ugm-3 (FIDAS),62.66498,R,ugm-3,1.321,R,ugm-3 (Ref.eq)
07-01-2022,03:00,3.075,R,ugm-3 (FIDAS),68.60219,R,ugm-3,1.745,R,ugm-3 (Ref.eq)
07-01-2022,04:00,3.225,R,ugm-3 (FIDAS),70.24864,R,ugm-3,1.910,R,ugm-3 (Ref.eq)
07-01-2022,05:00,3.175,R,ugm-3 (FIDAS),70.19875,R,ugm-3,1.816,R,ugm-3 (Ref.eq)
07-01-2022,06:00,3.550,R,ugm-3 (FIDAS),70.04907,R,ugm-3,2.075,R,ugm-3 (Ref.eq)
07-01-2022,07:00,3.450,R,ugm-3 (FIDAS),55.08132,R,ugm-3,1.934,R,ugm-3 (Ref.eq)
07-01-2022,08:00,5.850,R,ugm-3 (FIDAS),66.90584,R,ugm-3,2.783,R,ugm-3 (Ref.eq)
07-01-2022,09:00,5.200,R,ugm-3 (FIDAS),58.92304,R,ugm-3,2.594,R,ugm-3 (Ref.eq)
07-01-2022,10:00,7.500,R,ugm-3 (FIDAS),54.28304,R,ugm-3,3.703,R,ugm-3 (Ref.eq)
07-01-2022,11:00,3.850,R,ugm-3 (FIDAS),62.31573,R,ugm-3,2.359,R,ugm-3 (Ref.eq)
07-01-2022,12:00,4.350,R,ugm-3 (FIDAS),65.95789,R,ugm-3,2.547,R,ugm-3 (Ref.eq)
07-01-2022,13:00,6.150,R,ugm-3 (FIDAS),57.47616,R,ugm-3,3.939,R,ugm-3 (Ref.eq)
07-01-2022,14:00,10.675,R,ugm-3 (FIDAS),63.61294,R,ugm-3,5.660,R,ugm-3 (Ref.eq)
07-01-2022,15:00,9.725,R,ugm-3 (FIDAS),49.19401,R,ugm-3,5.896,R,ugm-3 (Ref.eq)
07-01-2022,16:00,4.350,R,ugm-3 (FIDAS),33.92690,R,ugm-3,2.547,R,ugm-3 (Ref.eq)
07-01-2022,17:00,6.425,R,ugm-3 (FIDAS),17.96130,R,ugm-3,5.142,R,ugm-3 (Ref.eq)
07-01-2022,18:00,11.025,R,ugm-3 (FIDAS),17.31270,R,ugm-3,8.703,R,ugm-3 (Ref.eq)
07-01-2022,19:00,7.375,R,ugm-3 (FIDAS),12.02409,R,ugm-3,5.920,R,ugm-3 (Ref.eq)
07-01-2022,20:00,11.950,R,ugm-3 (FIDAS),8.58151,R,ugm-3,10.377,R,ugm-3 (Ref.eq)
07-01-2022,21:00,13.775,R,ugm-3 (FIDAS),10.02839,R,ugm-3,12.406,R,ugm-3 (Ref.eq)
07-01-2022,22:00,5.850,R,ugm-3 (FIDAS),42.45852,R,ugm-3,4.670,R,ugm-3 (Ref.eq)
07-01-2022,23:00,7.350,R,ugm-3 (FIDAS),37.56905,R,ugm-3,5.849,R,ugm-3 (Ref.eq)
07-01-2022,24:00,7.650,R,ugm-3 (FIDAS),54.23315,R,ugm-3,5.826,R,ugm-3 (Ref.eq)
08-01-2022,01:00,4.925,R,ugm-3 (FIDAS),63.52978,R,ugm-3,3.632,R,ugm-3 (Ref.eq)
08-01-2022,02:00,3.425,R,ugm-3 (FIDAS),69.84950,R,ugm-3,2.453,R,ugm-3 (Ref.eq)
08-01-2022,03:00,2.400,R,ugm-3 (FIDAS),72.24434,R,ugm-3,1.557,R,ugm-3 (Ref.eq)
08-01-2022,04:00,0.925,R,ugm-3 (FIDAS),71.89509,R,ugm-3,0.495,R,ugm-3 (Ref.eq)
08-01-2022,05:00,0.475,R,ugm-3 (FIDAS),72.24434,R,ugm-3,0.142,R,ugm-3 (Ref.eq)
08-01-2022,06:00,17.825,R,ugm-3 (FIDAS),78.73037,R,ugm-3,10.849,R,ugm-3 (Ref.eq)
08-01-2022,07:00,26.925,R,ugm-3 (FIDAS),78.68047,R,ugm-3,17.123,R,ugm-3 (Ref.eq)
08-01-2022,08:00,16.450,R,ugm-3 (FIDAS),77.53295,R,ugm-3,10.118,R,ugm-3 (Ref.eq)
08-01-2022,09:00,19.025,R,ugm-3 (FIDAS),75.18800,R,ugm-3,10.047,R,ugm-3 (Ref.eq)
08-01-2022,10:00,15.025,R,ugm-3 (FIDAS),70.34843,R,ugm-3,8.160,R,ugm-3 (Ref.eq)
08-01-2022,11:00,7.825,R,ugm-3 (FIDAS),76.18585,R,ugm-3,4.175,R,ugm-3 (Ref.eq)
08-01-2022,12:00,9.400,R,ugm-3 (FIDAS),70.34843,R,ugm-3,5.071,R,ugm-3 (Ref.eq)
08-01-2022,13:00,7.475,R,ugm-3 (FIDAS),70.14886,R,ugm-3,4.316,R,ugm-3 (Ref.eq)
08-01-2022,14:00,8.575,R,ugm-3 (FIDAS),72.59359,R,ugm-3,4.788,R,ugm-3 (Ref.eq)
08-01-2022,15:00,5.600,R,ugm-3 (FIDAS),71.24649,R,ugm-3,3.090,R,ugm-3 (Ref.eq)
08-01-2022,16:00,8.125,R,ugm-3 (FIDAS),69.64993,R,ugm-3,4.434,R,ugm-3 (Ref.eq)
08-01-2022,17:00,7.450,R,ugm-3 (FIDAS),70.19875,R,ugm-3,4.033,R,ugm-3 (Ref.eq)
08-01-2022,18:00,8.650,R,ugm-3 (FIDAS),73.89079,R,ugm-3,5.071,R,ugm-3 (Ref.eq)
08-01-2022,19:00,8.475,R,ugm-3 (FIDAS),73.19230,R,ugm-3,4.976,R,ugm-3 (Ref.eq)
08-01-2022,20:00,9.050,R,ugm-3 (FIDAS),58.27444,R,ugm-3,5.849,R,ugm-3 (Ref.eq)
08-01-2022,21:00,10.650,R,ugm-3 (FIDAS),61.06842,R,ugm-3,6.156,R,ugm-3 (Ref.eq)
08-01-2022,22:00,7.875,R,ugm-3 (FIDAS),71.64563,R,ugm-3,4.811,R,ugm-3 (Ref.eq)
08-01-2022,23:00,6.200,R,ugm-3 (FIDAS),76.63488,R,ugm-3,4.245,R,ugm-3 (Ref.eq)
08-01-2022,24:00,6.175,R,ugm-3 (FIDAS),62.61509,R,ugm-3,3.797,R,ugm-3 (Ref.eq)
09-01-2022,01:00,9.675,R,ugm-3 (FIDAS),70.64778,R,ugm-3,5.731,R,ugm-3 (Ref.eq)
09-01-2022,02:00,7.325,R,ugm-3 (FIDAS),72.31086,R,ugm-3,4.528,R,ugm-3 (Ref.eq)
09-01-2022,03:00,9.000,R,ugm-3 (FIDAS),69.55015,R,ugm-3,5.307,R,ugm-3 (Ref.eq)
09-01-2022,04:00,7.275,R,ugm-3 (FIDAS),68.55230,R,ugm-3,4.693,R,ugm-3 (Ref.eq)
09-01-2022,05:00,8.275,R,ugm-3 (FIDAS),68.70197,R,ugm-3,5.142,R,ugm-3 (Ref.eq)
09-01-2022,06:00,9.825,R,ugm-3 (FIDAS),72.24434,R,ugm-3,6.250,R,ugm-3 (Ref.eq)
09-01-2022,07:00,11.100,R,ugm-3 (FIDAS),70.94714,R,ugm-3,7.076,R,ugm-3 (Ref.eq)
09-01-2022,08:00,9.725,R,ugm-3 (FIDAS),76.48520,R,ugm-3,5.755,R,ugm-3 (Ref.eq)
09-01-2022,09:00,13.950,R,ugm-3 (FIDAS),70.24864,R,ugm-3,8.137,R,ugm-3 (Ref.eq)
09-01-2022,10:00,14.250,R,ugm-3 (FIDAS),78.03187,R,ugm-3,8.609,R,ugm-3 (Ref.eq)
09-01-2022,11:00,14.200,R,ugm-3 (FIDAS),72.49380,R,ugm-3,8.632,R,ugm-3 (Ref.eq)
09-01-2022,12:00,14.425,R,ugm-3 (FIDAS),71.59574,R,ugm-3,8.514,R,ugm-3 (Ref.eq)
09-01-2022,13:00,16.900,R,ugm-3 (FIDAS),74.68907,R,ugm-3,9.434,R,ugm-3 (Ref.eq)
09-01-2022,14:00,17.200,R,ugm-3 (FIDAS),74.63918,R,ugm-3,9.293,R,ugm-3 (Ref.eq)
09-01-2022,15:00,17.975,R,ugm-3 (FIDAS),72.64348,R,ugm-3,9.104,R,ugm-3 (Ref.eq)
09-01-2022,16:00,17.375,R,ugm-3 (FIDAS),69.89939,R,ugm-3,8.538,R,ugm-3 (Ref.eq)
09-01-2022,17:00,20.825,R,ugm-3 (FIDAS),65.35918,R,ugm-3,9.929,R,ugm-3 (Ref.eq)
09-01-2022,18:00,36.750,R,ugm-3 (FIDAS),52.93594,R,ugm-3,24.434,R,ugm-3 (Ref.eq)
09-01-2022,19:00,29.825,R,ugm-3 (FIDAS),38.91615,R,ugm-3,20.000,R,ugm-3 (Ref.eq)
09-01-2022,20:00,26.625,R,ugm-3 (FIDAS),44.00519,R,ugm-3,18.774,R,ugm-3 (Ref.eq)
09-01-2022,21:00,12.900,R,ugm-3 (FIDAS),25.44518,R,ugm-3,8.467,R,ugm-3 (Ref.eq)
09-01-2022,22:00,9.075,R,ugm-3 (FIDAS),13.92001,R,ugm-3,6.321,R,ugm-3 (Ref.eq)
09-01-2022,23:00,7.350,R,ugm-3 (FIDAS),11.62495,R,ugm-3,4.929,R,ugm-3 (Ref.eq)
09-01-2022,24:00,8.875,R,ugm-3 (FIDAS),26.94195,R,ugm-3,5.943,R,ugm-3 (Ref.eq)
10-01-2022,01:00,6.300,R,ugm-3 (FIDAS),29.53636,R,ugm-3,4.505,R,ugm-3 (Ref.eq)
10-01-2022,02:00,4.075,R,ugm-3 (FIDAS),35.58998,R,ugm-3,2.453,R,ugm-3 (Ref.eq)
10-01-2022,03:00,4.275,R,ugm-3 (FIDAS),19.65765,R,ugm-3,2.217,R,ugm-3 (Ref.eq)
10-01-2022,04:00,3.200,R,ugm-3 (FIDAS),25.39528,R,ugm-3,1.415,R,ugm-3 (Ref.eq)
10-01-2022,05:00,4.425,R,ugm-3 (FIDAS),33.02884,R,ugm-3,2.288,R,ugm-3 (Ref.eq)
10-01-2022,06:00,4.225,R,ugm-3 (FIDAS),29.98539,R,ugm-3,2.594,R,ugm-3 (Ref.eq)
10-01-2022,07:00,4.500,R,ugm-3 (FIDAS),15.91571,R,ugm-3,2.618,R,ugm-3 (Ref.eq)
10-01-2022,08:00,4.325,R,ugm-3 (FIDAS),27.74023,R,ugm-3,2.123,R,ugm-3 (Ref.eq)
10-01-2022,09:00,3.200,R,ugm-3 (FIDAS),50.14196,R,ugm-3,1.580,R,ugm-3 (Ref.eq)
10-01-2022,10:00,3.975,R,ugm-3 (FIDAS),56.17896,R,ugm-3,2.146,R,ugm-3 (Ref.eq)
10-01-2022,11:00,2.825,R,ugm-3 (FIDAS),56.22885,R,ugm-3,1.509,R,ugm-3 (Ref.eq)
10-01-2022,12:00,1.725,R,ugm-3 (FIDAS),59.27229,R,ugm-3,1.061,R,ugm-3 (Ref.eq)
10-01-2022,13:00,1.175,R,ugm-3 (FIDAS),60.27014,R,ugm-3,0.731,R,ugm-3 (Ref.eq)
10-01-2022,14:00,1.875,R,ugm-3 (FIDAS),61.01853,R,ugm-3,1.109,R,ugm-3 (Ref.eq)
10-01-2022,15:00,1.525,R,ugm-3 (FIDAS),68.25294,R,ugm-3,0.825,R,ugm-3 (Ref.eq)
10-01-2022,16:00,2.400,R,ugm-3 (FIDAS),71.94499,R,ugm-3,1.297,R,ugm-3 (Ref.eq)
10-01-2022,17:00,10.150,R,ugm-3 (FIDAS),60.96864,R,ugm-3,5.330,R,ugm-3 (Ref.eq)
10-01-2022,18:00,12.200,R,ugm-3 (FIDAS),57.12691,R,ugm-3,6.580,R,ugm-3 (Ref.eq)
10-01-2022,19:00,14.550,R,ugm-3 (FIDAS),70.74757,R,ugm-3,7.948,R,ugm-3 (Ref.eq)
10-01-2022,20:00,11.525,R,ugm-3 (FIDAS),46.59960,R,ugm-3,6.722,R,ugm-3 (Ref.eq)
10-01-2022,21:00,8.125,R,ugm-3 (FIDAS),15.86582,R,ugm-3,4.953,R,ugm-3 (Ref.eq)
10-01-2022,22:00,8.525,R,ugm-3 (FIDAS),30.63400,R,ugm-3,4.599,R,ugm-3 (Ref.eq)
10-01-2022,23:00,7.775,R,ugm-3 (FIDAS),30.23486,R,ugm-3,4.811,R,ugm-3 (Ref.eq)
10-01-2022,24:00,6.450,R,ugm-3 (FIDAS),27.88991,R,ugm-3,3.750,R,ugm-3 (Ref.eq)
11-01-2022,01:00,6.150,R,ugm-3 (FIDAS),18.36044,R,ugm-3,3.632,R,ugm-3 (Ref.eq)
11-01-2022,02:00,7.500,R,ugm-3 (FIDAS),11.97420,R,ugm-3,4.292,R,ugm-3 (Ref.eq)
11-01-2022,03:00,6.625,R,ugm-3 (FIDAS),11.47528,R,ugm-3,3.962,R,ugm-3 (Ref.eq)
11-01-2022,04:00,5.575,R,ugm-3 (FIDAS),15.46668,R,ugm-3,3.467,R,ugm-3 (Ref.eq)
11-01-2022,05:00,5.875,R,ugm-3 (FIDAS),14.31915,R,ugm-3,3.491,R,ugm-3 (Ref.eq)
11-01-2022,06:00,7.250,R,ugm-3 (FIDAS),19.15872,R,ugm-3,3.821,R,ugm-3 (Ref.eq)
11-01-2022,07:00,5.800,R,ugm-3 (FIDAS),17.01334,R,ugm-3,3.208,R,ugm-3 (Ref.eq)
11-01-2022,08:00,4.825,R,ugm-3 (FIDAS),10.07829,R,ugm-3,2.571,R,ugm-3 (Ref.eq)
11-01-2022,09:00,4.650,R,ugm-3 (FIDAS),5.68775,R,ugm-3,2.359,R,ugm-3 (Ref.eq)
11-01-2022,10:00,6.175,R,ugm-3 (FIDAS),6.13678,R,ugm-3,3.373,R,ugm-3 (Ref.eq)
11-01-2022,11:00,24.475,R,ugm-3 (FIDAS),7.18452,R,ugm-3,21.038,R,ugm-3 (Ref.eq)
11-01-2022,12:00,11.275,R,ugm-3 (FIDAS),23.05034,R,ugm-3,7.736,R,ugm-3 (Ref.eq)
11-01-2022,13:00,8.675,R,ugm-3 (FIDAS),58.47401,R,ugm-3,4.080,R,ugm-3 (Ref.eq)
11-01-2022,14:00,9.675,R,ugm-3 (FIDAS),56.17896,R,ugm-3,4.340,R,ugm-3 (Ref.eq)
11-01-2022,15:00,9.950,R,ugm-3 (FIDAS),54.28304,R,ugm-3,4.764,R,ugm-3 (Ref.eq)
11-01-2022,16:00,8.450,R,ugm-3 (FIDAS),35.62325,R,ugm-3,4.505,R,ugm-3 (Ref.eq)
11-01-2022,17:00,4.550,R,ugm-3 (FIDAS),9.67915,R,ugm-3,3.066,R,ugm-3 (Ref.eq)
11-01-2022,18:00,5.600,R,ugm-3 (FIDAS),1.94581,R,ugm-3,3.467,R,ugm-3 (Ref.eq)
11-01-2022,19:00,5.650,R,ugm-3 (FIDAS),1.89592,R,ugm-3,3.962,R,ugm-3 (Ref.eq)
11-01-2022,20:00,6.100,R,ugm-3 (FIDAS),2.79398,R,ugm-3,4.080,R,ugm-3 (Ref.eq)
11-01-2022,21:00,5.500,R,ugm-3 (FIDAS),2.59441,R,ugm-3,3.750,R,ugm-3 (Ref.eq)
11-01-2022,22:00,6.425,R,ugm-3 (FIDAS),2.64430,R,ugm-3,4.623,R,ugm-3 (Ref.eq)
11-01-2022,23:00,6.825,R,ugm-3 (FIDAS),4.54022,R,ugm-3,4.811,R,ugm-3 (Ref.eq)
11-01-2022,24:00,6.300,R,ugm-3 (FIDAS),15.51657,R,ugm-3,3.986,R,ugm-3 (Ref.eq)
12-01-2022,01:00,6.225,R,ugm-3 (FIDAS),25.87758,R,ugm-3,3.915,R,ugm-3 (Ref.eq)
12-01-2022,02:00,8.375,R,ugm-3 (FIDAS),42.70798,R,ugm-3,4.623,R,ugm-3 (Ref.eq)
12-01-2022,03:00,9.100,R,ugm-3 (FIDAS),54.03358,R,ugm-3,5.142,R,ugm-3 (Ref.eq)
12-01-2022,04:00,8.350,R,ugm-3 (FIDAS),49.54325,R,ugm-3,5.071,R,ugm-3 (Ref.eq)
12-01-2022,05:00,4.875,R,ugm-3 (FIDAS),25.09593,R,ugm-3,3.137,R,ugm-3 (Ref.eq)
12-01-2022,06:00,4.950,R,ugm-3 (FIDAS),25.54496,R,ugm-3,2.972,R,ugm-3 (Ref.eq)
12-01-2022,07:00,8.075,R,ugm-3 (FIDAS),47.44777,R,ugm-3,4.340,R,ugm-3 (Ref.eq)
12-01-2022,08:00,7.400,R,ugm-3 (FIDAS),50.34153,R,ugm-3,4.175,R,ugm-3 (Ref.eq)
12-01-2022,09:00,6.600,R,ugm-3 (FIDAS),44.70368,R,ugm-3,3.774,R,ugm-3 (Ref.eq)
12-01-2022,10:00,7.100,R,ugm-3 (FIDAS),44.00519,R,ugm-3,3.726,R,ugm-3 (Ref.eq)
12-01-2022,11:00,7.425,R,ugm-3 (FIDAS),35.92260,R,ugm-3,3.585,R,ugm-3 (Ref.eq)
12-01-2022,12:00,7.850,R,ugm-3 (FIDAS),49.89250,R,ugm-3,3.703,R,ugm-3 (Ref.eq)
12-01-2022,13:00,6.725,R,ugm-3 (FIDAS),56.22885,R,ugm-3,3.632,R,ugm-3 (Ref.eq)
12-01-2022,14:00,6.725,R,ugm-3 (FIDAS),56.17896,R,ugm-3,3.585,R,ugm-3 (Ref.eq)
12-01-2022,15:00,6.575,R,ugm-3 (FIDAS),57.17681,R,ugm-3,3.443,R,ugm-3 (Ref.eq)
12-01-2022,16:00,6.925,R,ugm-3 (FIDAS),46.79917,R,ugm-3,3.868,R,ugm-3 (Ref.eq)
12-01-2022,17:00,5.350,R,ugm-3 (FIDAS),19.15872,R,ugm-3,3.184,R,ugm-3 (Ref.eq)
12-01-2022,18:00,5.775,R,ugm-3 (FIDAS),4.78968,R,ugm-3,3.137,R,ugm-3 (Ref.eq)
12-01-2022,19:00,14.200,R,ugm-3 (FIDAS),13.07184,R,ugm-3,10.826,R,ugm-3 (Ref.eq)
12-01-2022,20:00,9.125,R,ugm-3 (FIDAS),50.04218,R,ugm-3,5.826,R,ugm-3 (Ref.eq)
12-01-2022,21:00,9.450,R,ugm-3 (FIDAS),38.56690,R,ugm-3,6.038,R,ugm-3 (Ref.eq)
12-01-2022,22:00,9.475,R,ugm-3 (FIDAS),36.27185,R,ugm-3,5.401,R,ugm-3 (Ref.eq)
12-01-2022,23:00,9.675,R,ugm-3 (FIDAS),35.07443,R,ugm-3,6.297,R,ugm-3 (Ref.eq)
12-01-2022,24:00,11.850,R,ugm-3 (FIDAS),33.47787,R,ugm-3,8.609,R,ugm-3 (Ref.eq)
13-01-2022,01:00,8.250,R,ugm-3 (FIDAS),41.57708,R,ugm-3,5.542,R,ugm-3 (Ref.eq)
13-01-2022,02:00,7.750,R,ugm-3 (FIDAS),37.05350,R,ugm-3,4.811,R,ugm-3 (Ref.eq)
13-01-2022,03:00,7.050,R,ugm-3 (FIDAS),30.13507,R,ugm-3,4.340,R,ugm-3 (Ref.eq)
13-01-2022,04:00,6.625,R,ugm-3 (FIDAS),41.76002,R,ugm-3,3.962,R,ugm-3 (Ref.eq)
13-01-2022,05:00,5.950,R,ugm-3 (FIDAS),47.14841,R,ugm-3,3.514,R,ugm-3 (Ref.eq)
13-01-2022,06:00,5.600,R,ugm-3 (FIDAS),44.25465,R,ugm-3,3.090,R,ugm-3 (Ref.eq)
13-01-2022,07:00,5.125,R,ugm-3 (FIDAS),39.81422,R,ugm-3,2.476,R,ugm-3 (Ref.eq)
13-01-2022,08:00,5.050,R,ugm-3 (FIDAS),41.06153,R,ugm-3,2.217,R,ugm-3 (Ref.eq)
13-01-2022,09:00,4.900,R,ugm-3 (FIDAS),48.49551,R,ugm-3,2.359,R,ugm-3 (Ref.eq)
13-01-2022,10:00,5.675,R,ugm-3 (FIDAS),58.82326,R,ugm-3,2.759,R,ugm-3 (Ref.eq)